BEIDOU-3 M2

Last updated on Wed May 15 2019 03:07:46 GMT+0000 (Coordinated Universal Time)

1 43002U 17069B 19134.03552242 .00000095 00000-0 00000+0 0 9996 2 43002 55.1005 149.6879 0011417 300.4827 257.9971 1.86231627 10332
UTC large
Height (km)
Speed (km/s)
/
Latitude / Longitude
Inclination (degrees)
Orbital Period (minutes)
Azimuth
Elevation
Range (km)
Doppler Factor

Next 0 passes for location: London (51.5072 / 0.1276)

Sorry there are no passes over London.